Location: Home
(42.5358°N, 72.7383°W)
Time: 08:42:37
(UTC-04:00)

A-11 Canister half - Pass Details

Date: 01 July 2022
Orbit: 1514 x 1685 km, 47.2° (Epoch: 15 August)

Event Time Altitude Azimuth Distance (km) Brightness Sun altitude
Rises 03:35:27 0° 290° (WNW) 4,918 11.5 -14.6°
Reaches altitude 10° 03:38:39 10° 292° (WNW) 3,914 11.0 -14.3°
Maximum altitude 03:48:43 84° 21° (NNE) 1,633 9.2 -13.1°
Drops below altitude 10° 03:58:24 10° 110° (ESE) 3,773 11.3 -11.9°
Sets 04:01:25 0° 112° (ESE) 4,735 11.9 -11.5°
